TimeCDT,TemperatureF,Dew PointF,Humidity,Sea Level PressureIn,VisibilityMPH,Wind Direction,Wind SpeedMPH,Gust SpeedMPH,PrecipitationIn,Events,Conditions,WindDirDegrees,DateUTC
12:53 AM,63.0,59.0,87,30.20,10.0,Calm,Calm,-,N/A,,Clear,0,2013-09-06 05:53:00
1:53 AM,61.0,57.0,87,30.19,10.0,SSE,5.8,-,N/A,,Clear,150,2013-09-06 06:53:00
2:53 AM,60.1,54.0,80,30.18,10.0,Calm,Calm,-,N/A,,Clear,0,2013-09-06 07:53:00
3:53 AM,59.0,52.0,78,30.19,10.0,SE,3.5,-,N/A,,Clear,140,2013-09-06 08:53:00
4:53 AM,57.9,52.0,81,30.19,10.0,South,4.6,-,N/A,,Clear,170,2013-09-06 09:53:00
5:53 AM,57.9,52.0,81,30.20,10.0,Variable,3.5,-,N/A,,Clear,0,2013-09-06 10:53:00
6:53 AM,57.0,52.0,83,30.20,10.0,South,4.6,-,N/A,,Clear,170,2013-09-06 11:53:00
7:53 AM,60.1,54.0,80,30.19,10.0,South,5.8,-,N/A,,Clear,170,2013-09-06 12:53:00
8:53 AM,66.2,57.2,73,30.17,10.0,South,8.1,-,N/A,,Clear,190,2013-09-06 13:53:00
9:53 AM,69.1,59.0,70,30.17,10.0,South,11.5,-,N/A,,Clear,190,2013-09-06 14:53:00
10:53 AM,73.0,61.0,66,30.16,10.0,South,4.6,-,N/A,,Clear,190,2013-09-06 15:53:00
11:53 AM,79.0,64.0,60,30.14,10.0,South,9.2,-,N/A,,Clear,190,2013-09-06 16:53:00
12:53 PM,81.0,63.0,54,30.12,10.0,South,9.2,-,N/A,,Clear,180,2013-09-06 17:53:00
1:53 PM,82.9,64.0,53,30.09,10.0,South,10.4,-,N/A,,Clear,180,2013-09-06 18:53:00
2:53 PM,82.9,64.0,53,30.07,10.0,South,10.4,-,N/A,,Clear,190,2013-09-06 19:53:00
3:53 PM,84.0,62.1,47,30.04,10.0,SSW,11.5,-,N/A,,Clear,200,2013-09-06 20:53:00
4:53 PM,82.9,59.0,44,30.03,10.0,South,12.7,18.4,N/A,,Clear,190,2013-09-06 21:53:00
5:53 PM,82.0,62.1,51,30.03,10.0,South,6.9,-,N/A,,Clear,190,2013-09-06 22:53:00
6:53 PM,78.1,64.0,62,30.01,10.0,SSE,6.9,-,N/A,,Clear,160,2013-09-06 23:53:00
7:53 PM,73.0,63.0,71,30.00,10.0,SSE,9.2,-,N/A,,Clear,160,2013-09-07 00:53:00
8:53 PM,69.1,62.1,78,30.02,10.0,SSE,5.8,-,N/A,,Clear,160,2013-09-07 01:53:00
9:53 PM,69.1,62.1,78,30.00,10.0,SSW,4.6,-,N/A,,Clear,200,2013-09-07 02:53:00
10:53 PM,70.0,63.0,78,29.99,10.0,South,9.2,-,N/A,,Clear,180,2013-09-07 03:53:00
11:53 PM,69.1,62.1,78,29.98,10.0,SSW,9.2,-,N/A,,Partly Cloudy,200,2013-09-07 04:53:00